Theta_e
325 329 331 333 330 331 331 332 333 335 331 332 334 335 333 336 336 336 339 340 341 342 341 341 341 342 339 340 340 338 337 336 338 336 334 335 338 340 340 340 339 339 344
322 326 328 330 331 332 332 332 334 336 335 334 336 337 338 340 341 342 343 344 344 343 342 341 339 341 335 336 335 337 336 336 336 333 331 328 331 335 336 337 337 336 338
323 324 324 325 327 327 328 330 331 333 334 339 343 344 344 342 339 340 341 340 343 346 345 343 341 339 332 330 331 332 333 331 336 336 333 325 325 327 333 333 337 337 334
317 321 322 322 324 325 326 328 328 329 332 335 335 335 333 333 335 336 337 338 340 342 347 343 337 334 332 330 330 332 331 334 333 335 337 336 334 329 326 330 333 334 333
313 313 316 319 322 324 324 325 326 326 328 330 332 331 330 332 332 331 331 332 334 336 339 337 335 334 332 333 334 332 330 332 334 337 334 333 332 329 329 326 328 333 333
311 311 313 314 313 318 318 320 321 322 324 325 326 326 327 328 327 327 328 329 330 331 333 336 334 333 333 333 332 330 329 329 334 337 337 335 332 330 328 325 325 327 330
309 309 311 311 311 311 312 314 315 316 321 323 323 324 324 324 323 322 323 324 326 327 329 331 331 331 331 332 331 328 328 328 333 336 337 336 336 334 332 329 323 325 331
309 308 310 310 311 312 312 312 313 313 315 317 317 319 320 320 320 319 321 321 322 325 327 328 328 328 329 329 329 328 327 329 333 335 336 337 336 333 332 329 323 323 327
307 309 311 311 310 309 310 311 311 311 312 313 314 314 314 315 314 314 317 318 321 323 322 323 324 325 326 328 327 326 326 327 329 334 337 337 337 335 333 330 329 328 322
308 310 311 311 311 312 312 312 312 310 311 311 312 313 313 312 311 312 312 314 316 318 320 321 321 322 322 325 326 324 325 324 326 331 331 333 336 337 335 332 329 329 328
307 309 310 312 312 311 311 310 311 311 310 310 309 310 310 309 310 309 310 311 312 315 316 318 319 321 321 321 324 324 328 325 324 324 325 328 332 333 334 332 328 326 327
307 308 309 310 311 309 309 307 308 307 309 309 309 308 308 309 309 309 309 310 309 311 312 313 315 318 321 320 320 322 323 324 324 326 325 326 328 332 334 332 329 325 326
306 307 307 307 309 309 308 307 308 310 311 311 311 311 309 308 308 308 308 309 308 308 309 311 314 316 318 320 319 320 320 321 322 323 326 326 328 328 330 330 330 327 327
306 305 305 306 307 309 305 306 305 306 308 308 306 305 306 306 306 307 307 307 307 306 306 307 309 311 313 315 316 315 316 317 317 320 325 326 326 328 328 328 329 329 326
305 305 304 304 305 302 303 303 303 304 305 304 303 303 304 304 304 304 304 305 304 303 304 305 306 307 307 310 309 309 310 311 312 313 316 323 323 323 322 326 327 328 326
305 306 307 305 301 301 301 301 300 301 303 302 302 303 302 302 301 301 301 301 300 300 301 302 302 302 303 303 304 306 305 307 308 309 311 314 318 321 317 316 318 324 326
304 305 304 300 300 300 300 299 299 300 300 300 300 301 300 300 299 299 299 298 297 298 298 299 299 299 301 300 300 302 303 303 305 307 309 310 314 315 318 316 315 314 313
302 300 299 298 298 298 298 298 299 299 298 298 298 298 298 298 298 297 297 296 296 295 296 296 297 297 298 299 298 299 300 301 303 305 307 308 309 310 311 312 317 322 323
299 299 299 298 296 297 297 297 296 296 296 296 296 297 298 296 296 295 294 295 295 295 294 295 296 296 297 297 297 298 298 298 299 301 306 307 307 303 299 307 310 314 321
298 297 296 296 295 295 295 294 293 293 293 294 296 297 296 295 294 294 294 295 295 295 296 295 295 296 296 296 296 296 297 296 296 300 304 302 304 299 295 302 306 308 314
295 295 295 294 294 294 293 292 292 292 294 295 296 297 295 293 294 294 293 292 292 294 293 294 295 296 296 296 295 295 296 295 296 297 300 304 298 295 295 296 302 307 310
294 294 292 292 293 294 292 291 290 293 295 296 294 293 293 294 294 293 292 292 293 292 291 292 292 294 296 295 295 294 294 296 296 297 300 301 294 294 294 297 297 297 298
292 292 291 291 291 292 292 291 292 295 293 292 292 293 293 293 293 292 292 292 292 291 290 290 290 291 293 294 294 294 294 295 296 300 298 295 294 294 296 297 299 298 302
290 290 290 290 290 292 293 292 294 293 291 290 291 291 292 292 293 292 292 291 291 290 290 290 289 290 291 291 293 294 295 295 295 297 298 296 295 294 297 299 303 306 305
290 290 289 289 289 291 292 294 292 292 290 290 290 290 291 291 291 292 291 291 292 291 290 290 290 289 289 291 291 291 291 292 292 292 293 293 294 294 296 299 303 308 308
289 288 288 289 291 291 291 292 293 292 290 288 290 289 290 290 291 290 290 292 291 291 291 291 290 291 291 291 291 291 290 290 290 291 290 290 292 293 295 296 299 303 307
Wind_Speed
7 6 6 8 8 8 7 3 5 5 1 1 2 2 3 1 2 3 4 5 5 8 8 3 1 4 4 3 4 2 2 3 3 1 3 3 5 5 3 3 4 6 5
10 10 10 10 10 10 9 9 7 4 1 1 0 1 1 2 2 3 2 0 4 5 5 5 5 8 7 6 5 6 5 5 7 4 1 2 3 2 1 1 4 6 3
11 11 13 12 12 14 14 12 12 12 10 6 2 2 2 2 3 3 3 3 4 3 7 8 8 10 9 8 8 8 8 5 2 5 4 1 3 1 0 0 2 3 2
11 13 14 15 14 12 13 14 20 16 15 13 8 9 5 4 3 5 4 4 2 2 1 4 6 9 8 10 11 7 5 4 4 3 5 2 3 3 2 1 1 1 2
11 12 13 12 12 14 14 14 16 19 19 16 8 6 10 8 4 7 5 5 5 4 3 6 10 7 7 5 4 7 5 3 3 3 2 2 1 1 2 3 2 1 2
9 10 10 11 12 11 12 14 18 18 20 18 18 22 13 9 6 5 5 5 4 6 8 7 5 3 4 5 6 6 6 3 1 2 3 3 3 4 3 3 2 1 1
7 8 11 12 13 14 14 15 15 12 13 10 10 8 7 6 6 5 5 7 5 4 7 5 4 3 6 6 6 5 4 1 2 3 3 2 3 2 2 3 2 2 2
4 6 6 7 8 8 9 12 14 13 7 6 9 4 4 4 3 3 2 3 3 3 4 4 4 4 4 4 4 3 3 3 3 4 4 3 4 4 3 3 4 2 3
6 7 4 5 7 8 7 7 9 9 5 7 4 6 6 4 4 5 4 3 4 3 4 3 4 5 5 6 6 5 5 3 4 5 6 5 5 4 5 4 3 4 5
5 4 4 5 4 4 4 6 7 9 7 6 2 3 3 4 1 3 5 5 6 6 7 6 5 5 5 5 5 4 5 5 4 5 7 7 4 5 4 5 5 4 5
5 4 4 3 3 4 5 5 5 6 4 2 5 5 5 6 5 5 4 5 6 5 5 6 6 5 5 6 5 5 5 4 4 5 7 8 6 5 4 4 3 5 6
6 6 6 4 5 5 5 7 7 6 4 4 4 5 6 7 6 5 4 4 6 5 7 7 6 7 4 4 5 6 6 6 6 7 6 10 7 6 4 2 6 4 4
8 6 5 5 5 6 5 5 2 2 4 4 2 2 4 4 4 6 7 7 6 6 7 8 8 8 8 6 5 4 5 5 5 6 6 7 9 7 5 4 3 2 4
8 6 6 5 3 3 5 5 6 6 4 5 6 5 4 4 4 4 5 6 7 7 7 6 9 8 9 8 7 8 7 6 6 6 7 4 7 8 6 5 3 2 3
7 8 6 4 1 4 5 7 6 6 5 5 4 4 4 3 3 4 5 4 5 7 8 7 8 7 8 7 8 8 7 7 6 5 7 5 6 10 9 5 6 4 4
9 8 5 4 6 6 5 5 5 5 4 5 5 4 4 4 4 5 6 6 7 7 8 8 8 9 8 11 13 8 8 9 6 6 6 5 7 5 8 11 10 6 6
9 8 7 8 6 6 4 5 5 4 5 4 3 3 4 5 5 7 8 7 7 7 8 8 7 9 9 13 13 14 8 9 8 7 6 5 4 6 5 7 8 9 11
7 6 7 6 6 4 5 5 5 4 3 3 3 5 5 6 6 7 7 7 7 7 9 10 10 9 8 13 13 16 10 8 10 9 8 6 7 6 5 6 7 7 6
6 6 6 5 6 6 4 5 4 4 5 6 6 7 6 7 7 8 9 9 6 7 8 9 12 11 9 11 13 14 11 10 10 10 8 7 7 7 2 4 7 8 8
9 9 7 5 6 3 4 4 3 2 3 4 6 6 6 7 8 8 8 8 8 10 9 12 11 14 11 10 12 13 8 10 9 9 9 6 7 4 5 2 6 6 8
9 7 6 5 4 4 4 3 2 4 5 6 6 3 4 7 8 8 9 9 9 10 10 12 11 12 10 10 13 15 9 8 9 9 7 6 5 3 1 0 5 7 7
7 6 5 4 2 1 3 3 4 5 4 6 8 6 7 7 8 8 9 9 9 10 11 11 11 9 9 10 11 13 12 12 8 9 7 3 6 8 9 5 9 12 9
5 4 4 3 3 3 0 3 4 4 7 7 7 9 10 8 8 9 10 9 9 9 10 9 10 10 8 8 11 13 10 10 7 6 6 6 5 8 7 7 9 5 5
4 3 3 2 2 3 3 2 5 6 7 9 9 9 9 9 8 6 7 7 7 7 8 9 9 9 9 8 8 8 7 9 9 9 5 6 8 8 8 7 7 6 6
3 2 0 1 3 4 4 3 3 5 10 8 7 9 7 8 8 8 7 8 9 9 9 9 9 9 9 9 10 10 10 10 11 12 9 7 6 7 6 6 7 7 6
1 1 2 2 2 3 4 5 5 5 6 9 6 7 7 7 7 8 8 12 16 19 19 20 16 11 17 20 19 18 17 17 15 9 9 8 7 7 7 7 7 7 7
Wind_Direction
334 4 20 51 41 34 34 5 339 324 310 0 26 347 245 284 291 248 219 201 176 202 210 224 212 99 139 127 153 148 220 260 206 232 244 234 228 249 254 252 244 255 242
31 35 34 53 56 43 12 11 2 299 215 255 304 263 191 190 153 146 151 177 211 223 208 188 160 158 136 165 175 166 196 207 185 190 137 270 322 292 224 274 247 248 252
59 52 56 54 53 45 30 19 22 19 21 3 46 64 69 50 40 6 51 27 56 230 199 169 167 163 162 173 192 201 190 196 93 208 137 109 234 339 88 335 276 218 216
30 55 60 56 51 54 54 43 37 35 29 16 50 52 15 15 40 44 358 334 14 36 6 84 157 170 184 183 205 199 223 137 190 123 230 322 131 195 306 254 350 72 103
32 40 48 51 50 56 66 77 66 46 42 27 29 54 64 19 11 55 335 350 355 11 309 98 191 184 216 257 323 322 271 189 137 153 160 167 131 204 193 279 254 85 75
34 50 56 66 58 52 50 45 59 62 57 41 22 32 16 35 20 7 357 3 14 7 23 40 32 331 335 336 339 331 330 310 259 205 184 182 167 194 180 213 214 296 4
56 63 70 73 76 76 74 69 62 49 74 68 58 37 7 357 12 358 347 348 4 19 13 22 7 350 330 326 316 325 338 331 235 232 248 222 227 184 175 143 153 184 152
87 87 84 84 75 70 74 80 85 89 90 95 89 67 25 330 351 25 8 335 334 10 7 28 12 2 337 323 315 287 266 260 256 242 247 248 228 184 198 165 153 160 198
152 133 95 52 43 44 30 82 97 88 32 47 61 111 111 51 4 3 1 342 328 349 3 29 10 347 353 4 5 355 331 295 271 259 257 257 262 201 201 180 194 165 185
178 99 71 85 77 71 58 41 48 59 44 39 23 97 339 96 136 26 353 344 328 349 342 348 357 353 349 355 7 3 359 334 301 287 275 283 281 258 222 210 209 204 185
201 150 169 173 135 153 160 161 156 135 169 118 54 16 359 9 355 37 334 317 306 334 335 322 329 331 342 346 357 358 1 348 304 280 281 277 277 293 264 233 236 219 212
202 218 230 244 197 221 235 210 191 164 161 122 100 103 59 17 11 21 7 347 333 342 333 321 319 311 305 320 338 340 350 1 347 309 283 278 275 255 265 255 240 216 229
207 209 210 211 213 233 254 245 130 101 91 87 103 63 50 79 29 9 355 347 348 357 357 342 330 321 318 323 315 312 323 340 340 334 302 279 282 276 257 243 257 211 201
200 196 205 205 218 306 323 108 62 44 32 68 59 49 46 44 24 11 346 341 340 344 339 345 324 336 330 327 343 340 333 333 330 331 342 311 279 268 263 263 249 192 220
196 209 199 174 223 102 87 82 77 63 67 76 74 49 16 19 4 348 328 319 321 320 319 328 308 330 333 322 343 330 330 317 321 323 328 340 331 315 301 275 266 226 180
194 200 206 139 121 120 102 86 70 56 60 48 29 18 1 345 336 316 320 314 316 315 314 311 330 326 316 322 324 346 332 322 320 309 307 319 311 325 318 294 263 232 216
180 176 168 151 138 126 117 97 85 62 60 59 27 341 325 318 315 315 315 308 300 305 304 302 314 311 306 308 314 326 324 311 309 301 293 303 310 314 317 314 279 271 251
147 143 129 118 119 113 85 80 57 59 50 19 342 321 315 303 297 295 293 292 295 302 304 303 303 293 300 299 308 316 313 305 300 298 294 284 287 288 304 314 299 282 251
130 117 116 111 96 78 79 84 57 22 353 336 328 318 302 293 295 295 296 282 278 289 289 295 301 289 284 290 299 308 310 305 299 295 279 279 282 275 350 322 309 305 290
109 113 104 94 103 109 92 75 51 1 306 290 284 287 303 316 314 299 299 311 316 303 296 292 286 286 285 290 288 290 290 295 299 297 291 268 272 299 9 294 288 287 283
103 102 95 96 76 59 57 31 355 311 298 296 287 322 309 287 284 301 309 309 305 297 295 297 294 290 283 286 279 278 284 285 293 298 295 288 341 28 353 235 259 250 307
89 82 90 88 60 47 32 353 319 301 308 323 316 305 301 297 308 301 299 295 296 293 296 299 294 288 289 283 281 276 273 283 274 286 285 274 334 330 315 284 268 274 291
101 85 102 79 21 356 321 295 299 341 340 323 311 312 303 300 298 298 297 300 294 295 297 296 291 294 302 300 300 297 293 299 301 272 265 299 300 296 305 278 279 279 257
91 74 77 29 319 316 323 293 10 353 330 321 318 315 303 299 295 287 283 278 275 275 273 277 284 293 298 298 293 292 301 311 310 303 294 309 295 281 277 300 288 235 249
84 77 13 315 304 330 341 14 347 333 329 312 300 295 288 290 291 283 277 274 272 270 278 278 279 283 281 279 283 290 290 290 290 302 287 283 280 287 288 282 283 252 222
142 13 332 305 307 9 328 299 289 328 320 319 308 290 290 283 281 280 280 260 259 268 269 270 266 275 272 278 278 277 275 276 280 279 278 279 276 271 277 274 273 286 237